FW6030 Weather Reports


time (UTC)temp
C
wind
direction
speed
KPH
gust
KPH
rain 1hr
cm
rain 24hr
cm
rain mn
cm
humidity
%
barometer
mb
20260504070318 17 360 16.1 29.0 0.00 0.00 0.00 73 1016.9
20260504070219 17 360 14.5 27.4 0.00 0.00 0.00 73 1017.0
20260504070121 17 360 14.5 27.4 0.00 0.00 0.00 73 1017.0
20260504060228 18 360 9.7 22.5 0.00 0.00 0.00 70 1017.9
20260504060149 18 360 11.3 22.5 0.00 0.00 0.00 70 1018.0
20260504050725 18 360 9.7 25.7 0.00 0.00 0.00 66 1018.3
20260504050626 18 360 9.7 25.7 0.00 0.00 0.00 66 1018.3
20260504050527 18 360 9.7 25.7 0.00 0.00 0.00 66 1018.3
20260504050427 18 360 9.7 25.7 0.00 0.00 0.00 66 1018.2
20260504050347 18 360 11.3 25.7 0.00 0.00 0.00 66 1018.2
20260504050229 18 360 11.3 25.7 0.00 0.00 0.00 66 1018.2
20260504050128 18 360 11.3 25.7 0.00 0.00 0.00 66 1018.3
20260504045921 18 360 11.3 25.7 0.00 0.00 0.00 65 1018.3
20260504045823 18 360 11.3 24.1 0.00 0.00 0.00 65 1018.4
20260504045743 18 360 11.3 24.1 0.00 0.00 0.00 65 1018.3
20260504045623 18 360 11.3 24.1 0.00 0.00 0.00 65 1018.3
20260504045523 18 360 11.3 25.7 0.00 0.00 0.00 65 1018.3
20260504045448 18 360 11.3 25.7 0.00 0.00 0.00 65 1018.3
20260504045327 18 360 11.3 33.8 0.00 0.00 0.00 65 1018.3
20260504045228 18 360 11.3 33.8 0.00 0.00 0.00 65 1018.3
20260504045128 18 360 12.9 33.8 0.00 0.00 0.00 65 1018.2
20260504045029 19 360 14.5 33.8 0.00 0.00 0.00 65 1018.2
20260504044929 19 360 14.5 33.8 0.00 0.00 0.00 65 1018.2
20260504044829 19 360 16.1 33.8 0.00 0.00 0.00 65 1018.2
20260504044754 19 360 16.1 33.8 0.00 0.00 0.00 65 1018.3
20260504044653 19 360 16.1 33.8 0.00 0.00 0.00 65 1018.2
20260504044534 19 360 14.5 33.8 0.00 0.00 0.00 65 1018.3
20260504044434 19 360 14.5 33.8 0.00 0.00 0.00 64 1018.3
20260504044334 19 360 16.1 33.8 0.00 0.00 0.00 64 1018.3
20260504044235 19 360 16.1 29.0 0.00 0.00 0.00 64 1018.2
20260504044116 19 360 14.5 29.0 0.00 0.00 0.00 64 1018.4
20260504044021 19 360 16.1 29.0 0.00 0.00 0.00 64 1018.3
20260504043920 19 360 16.1 29.0 0.00 0.00 0.00 64 1018.3
20260504043821 19 360 12.9 25.7 0.00 0.00 0.00 64 1018.3
20260504043722 19 360 12.9 25.7 0.00 0.00 0.00 64 1018.4
20260504043643 19 360 12.9 25.7 0.00 0.00 0.00 64 1018.4
20260504043521 19 360 11.3 25.7 0.00 0.00 0.00 64 1018.4
20260504043422 19 360 12.9 25.7 0.00 0.00 0.00 63 1018.4
20260504043326 19 360 12.9 25.7 0.00 0.00 0.00 63 1018.4
20260504043227 19 360 14.5 25.7 0.00 0.00 0.00 63 1018.3
20260504043128 19 360 14.5 25.7 0.00 0.00 0.00 63 1018.3
20260504043028 19 360 16.1 25.7 0.00 0.00 0.00 63 1018.3
20260504042928 19 360 14.5 24.1 0.00 0.00 0.00 63 1018.3
20260504042829 19 360 14.5 24.1 0.00 0.00 0.00 63 1018.4
20260504042731 19 360 16.1 24.1 0.00 0.00 0.00 63 1018.3
20260504042635 19 360 16.1 24.1 0.00 0.00 0.00 63 1018.4
20260504042535 19 360 16.1 25.7 0.00 0.00 0.00 63 1018.3
20260504042435 19 360 16.1 29.0 0.00 0.00 0.00 62 1018.4
20260504042356 19 360 16.1 29.0 0.00 0.00 0.00 62 1018.4
20260504042216 19 360 14.5 29.0 0.00 0.00 0.00 62 1018.4
20260504042117 19 360 14.5 29.0 0.00 0.00 0.00 62 1018.3
20260504042022 19 360 14.5 29.0 0.00 0.00 0.00 62 1018.4
20260504041922 19 360 14.5 29.0 0.00 0.00 0.00 62 1018.4
20260504041823 19 360 14.5 29.0 0.00 0.00 0.00 61 1018.4
20260504041724 19 360 14.5 29.0 0.00 0.00 0.00 61 1018.4
20260504041624 19 360 14.5 29.0 0.00 0.00 0.00 61 1018.4
20260504041525 19 360 12.9 24.1 0.00 0.00 0.00 61 1018.4
20260504041425 19 360 11.3 24.1 0.00 0.00 0.00 61 1018.5
20260504041330 19 360 9.7 24.1 0.00 0.00 0.00 61 1018.5
20260504041231 19 360 9.7 24.1 0.00 0.00 0.00 61 1018.4
20260504041132 19 360 8.0 24.1 0.00 0.00 0.00 61 1018.5
20260504041034 19 360 6.4 24.1 0.00 0.00 0.00 61 1018.5
20260504040933 19 360 6.4 24.1 0.00 0.00 0.00 61 1018.5
20260504040834 19 360 8.0 24.1 0.00 0.00 0.00 61 1018.5
20260504040738 19 360 9.7 24.1 0.00 0.00 0.00 60 1018.4
20260504040618 19 360 9.7 24.1 0.00 0.00 0.00 60 1018.4
20260504040518 19 360 11.3 24.1 0.00 0.00 0.00 60 1018.4
20260504040419 19 360 11.3 24.1 0.00 0.00 0.00 60 1018.3
20260504040319 19 360 11.3 24.1 0.00 0.00 0.00 60 1018.4
20260504040240 20 360 12.9 24.1 0.00 0.00 0.00 59 1018.4
20260504040120 20 360 12.9 24.1 0.00 0.00 0.00 59 1018.4
20260504040025 20 360 12.9 24.1 0.00 0.00 0.00 59 1018.4
20260504035925 20 360 14.5 24.1 0.00 0.00 0.00 59 1018.4
20260504035825 20 360 12.9 24.1 0.00 0.00 0.00 59 1018.4
20260504035728 20 360 12.9 24.1 0.00 0.00 0.00 59 1018.4
20260504035627 20 360 12.9 25.7 0.00 0.00 0.00 59 1018.4
20260504035546 20 360 12.9 25.7 0.00 0.00 0.00 59 1018.5
20260504035446 20 360 12.9 25.7 0.00 0.00 0.00 58 1018.5
20260504035325 20 360 11.3 25.7 0.00 0.00 0.00 58 1018.6
20260504035229 20 360 12.9 25.7 0.00 0.00 0.00 58 1018.6
20260504035131 20 360 14.5 25.7 0.00 0.00 0.00 57 1018.5
20260504035032 20 360 14.5 25.7 0.00 0.00 0.00 57 1018.6
20260504034933 20 360 12.9 25.7 0.00 0.00 0.00 57 1018.6
20260504034833 20 360 14.5 25.7 0.00 0.00 0.00 57 1018.6
20260504034734 20 360 12.9 25.7 0.00 0.00 0.00 57 1018.6
20260504034618 20 360 11.3 24.1 0.00 0.00 0.00 57 1018.6
20260504034539 20 360 11.3 32.2 0.00 0.00 0.00 57 1018.6
20260504034418 20 360 12.9 32.2 0.00 0.00 0.00 56 1018.5
20260504034319 20 360 11.3 32.2 0.00 0.00 0.00 56 1018.5
20260504034219 20 360 12.9 32.2 0.00 0.00 0.00 56 1018.4
20260504034120 20 360 14.5 32.2 0.00 0.00 0.00 56 1018.5
20260504034020 20 360 14.5 32.2 0.00 0.00 0.00 56 1018.5
20260504033922 20 360 14.5 32.2 0.00 0.00 0.00 56 1018.5
20260504033842 20 360 14.5 32.2 0.00 0.00 0.00 56 1018.5
20260504033743 20 360 12.9 32.2 0.00 0.00 0.00 55 1018.4
20260504033616 20 360 11.3 32.2 0.00 0.00 0.00 55 1018.5
20260504033517 20 360 11.3 22.5 0.00 0.00 0.00 55 1018.5
20260504033418 20 360 11.3 22.5 0.00 0.00 0.00 55 1018.4
20260504033318 20 360 9.7 22.5 0.00 0.00 0.00 55 1018.5
20260504033222 20 360 11.3 22.5 0.00 0.00 0.00 55 1018.5
20260504033123 20 360 11.3 22.5 0.00 0.00 0.00 55 1018.5
20260504033044 20 360 11.3 22.5 0.00 0.00 0.00 55 1018.5
20260504032923 20 360 11.3 22.5 0.00 0.00 0.00 55 1018.4
20260504032825 20 360 11.3 22.5 0.00 0.00 0.00 55 1018.4
20260504032724 20 360 11.3 22.5 0.00 0.00 0.00 55 1018.4
20260504032625 20 360 11.3 22.5 0.00 0.00 0.00 55 1018.4
20260504032530 20 360 11.3 17.7 0.00 0.00 0.00 55 1018.4
20260504032430 20 360 9.7 17.7 0.00 0.00 0.00 55 1018.4
20260504032331 20 360 9.7 17.7 0.00 0.00 0.00 55 1018.3
20260504032230 20 360 9.7 17.7 0.00 0.00 0.00 55 1018.3
20260504032131 20 360 9.7 17.7 0.00 0.00 0.00 54 1018.4
20260504032032 20 360 8.0 17.7 0.00 0.00 0.00 54 1018.3
20260504031954 20 360 8.0 14.5 0.00 0.00 0.00 55 1018.3
20260504031817 20 360 8.0 14.5 0.00 0.00 0.00 55 1018.2
20260504031718 20 360 6.4 12.9 0.00 0.00 0.00 55 1018.3
20260504031637 20 360 6.4 12.9 0.00 0.00 0.00 55 1018.2
20260504031517 20 360 6.4 12.9 0.00 0.00 0.00 55 1018.2
20260504031418 20 360 6.4 12.9 0.00 0.00 0.00 55 1018.3
20260504031318 20 360 6.4 12.9 0.00 0.00 0.00 54 1018.2
20260504031239 20 360 6.4 9.7 0.00 0.00 0.00 54 1018.2
20260504031121 20 360 6.4 9.7 0.00 0.00 0.00 54 1018.3
20260504031022 20 360 6.4 9.7 0.00 0.00 0.00 54 1018.3
20260504030922 20 360 4.8 9.7 0.00 0.00 0.00 54 1018.4
20260504030822 20 360 4.8 9.7 0.00 0.00 0.00 54 1018.3
20260504030722 20 360 4.8 9.7 0.00 0.00 0.00 54 1018.4
20260504030623 20 360 4.8 8.0 0.00 0.00 0.00 54 1018.3
20260504030543 20 360 4.8 9.7 0.00 0.00 0.00 54 1018.3
20260504030427 20 360 4.8 9.7 0.00 0.00 0.00 54 1018.3
20260504030327 20 360 4.8 9.7 0.00 0.00 0.00 54 1018.3
20260504030248 20 360 4.8 9.7 0.00 0.00 0.00 54 1018.3
20260504030128 20 360 4.8 9.7 0.00 0.00 0.00 54 1018.3
20260504030029 20 360 4.8 9.7 0.00 0.00 0.00 54 1018.3
20260504025947 20 360 4.8 9.7 0.00 0.00 0.00 54 1018.3
20260504025826 20 360 4.8 9.7 0.00 0.00 0.00 54 1018.3
20260504025729 20 360 4.8 9.7 0.00 0.00 0.00 54 1018.3
20260504025631 20 360 4.8 9.7 0.00 0.00 0.00 54 1018.3
20260504025552 20 360 4.8 9.7 0.00 0.00 0.00 54 1018.3
20260504025451 20 360 4.8 9.7 0.00 0.00 0.00 54 1018.3
20260504025331 20 360 4.8 9.7 0.00 0.00 0.00 53 1018.3
20260504025253 20 360 4.8 9.7 0.00 0.00 0.00 53 1018.3
20260504025132 20 360 4.8 9.7 0.00 0.00 0.00 53 1018.3
20260504025032 20 360 4.8 9.7 0.00 0.00 0.00 53 1018.4
20260504024918 20 360 4.8 9.7 0.00 0.00 0.00 53 1018.2
20260504024838 20 360 4.8 9.7 0.00 0.00 0.00 53 1018.3
20260504024717 20 360 4.8 9.7 0.00 0.00 0.00 53 1018.3
20260504024619 20 360 4.8 9.7 0.00 0.00 0.00 53 1018.3
20260504024520 20 360 4.8 9.7 0.00 0.00 0.00 53 1018.3
20260504024420 20 360 4.8 9.7 0.00 0.00 0.00 53 1018.3
20260504024321 20 360 4.8 9.7 0.00 0.00 0.00 53 1018.4
20260504024241 20 360 4.8 9.7 0.00 0.00 0.00 53 1018.3
20260504024123 20 360 4.8 9.7 0.00 0.00 0.00 53 1018.4
20260504024023 20 360 4.8 9.7 0.00 0.00 0.00 53 1018.3
20260504023923 20 360 4.8 9.7 0.00 0.00 0.00 52 1018.3
20260504023825 20 360 6.4 9.7 0.00 0.00 0.00 52 1018.2
20260504023725 20 360 4.8 9.7 0.00 0.00 0.00 53 1018.2
20260504023625 20 360 4.8 9.7 0.00 0.00 0.00 53 1018.2
20260504023529 20 360 4.8 9.7 0.00 0.00 0.00 53 1018.2
20260504023431 20 360 4.8 9.7 0.00 0.00 0.00 53 1018.2
20260504023352 20 360 4.8 9.7 0.00 0.00 0.00 53 1018.2
20260504023231 20 360 6.4 9.7 0.00 0.00 0.00 53 1018.1
20260504023130 20 360 4.8 9.7 0.00 0.00 0.00 52 1018.1
20260504023031 20 360 6.4 9.7 0.00 0.00 0.00 52 1018.2
20260504022931 20 360 6.4 12.9 0.00 0.00 0.00 52 1018.2
20260504022852 20 360 4.8 12.9 0.00 0.00 0.00 52 1018.2
20260504022753 20 360 4.8 12.9 0.00 0.00 0.00 52 1018.1
20260504022616 20 360 4.8 12.9 0.00 0.00 0.00 52 1018.2
20260504022516 20 360 4.8 12.9 0.00 0.00 0.00 52 1018.2
20260504022418 20 360 6.4 12.9 0.00 0.00 0.00 52 1018.2
20260504022318 20 360 6.4 12.9 0.00 0.00 0.00 52 1018.1
20260504022218 20 360 6.4 12.9 0.00 0.00 0.00 52 1018.2
20260504022119 20 360 6.4 12.9 0.00 0.00 0.00 52 1018.1
20260504022043 20 360 6.4 12.9 0.00 0.00 0.00 52 1018.1
20260504022004 20 360 6.4 12.9 0.00 0.00 0.00 52 1018.1
20260504021816 21 360 6.4 12.9 0.00 0.00 0.00 52 1018.1
20260504021717 21 360 6.4 9.7 0.00 0.00 0.00 53 1018.1
20260504021617 21 360 6.4 9.7 0.00 0.00 0.00 51 1018.1
20260504021518 21 360 6.4 9.7 0.00 0.00 0.00 51 1018.1
20260504021419 21 360 4.8 9.7 0.00 0.00 0.00 51 1018.2
20260504021324 21 360 4.8 9.7 0.00 0.00 0.00 51 1018.2
20260504021225 21 360 4.8 8.0 0.00 0.00 0.00 51 1018.2
20260504021125 21 360 4.8 8.0 0.00 0.00 0.00 51 1018.2
20260504021047 21 360 4.8 8.0 0.00 0.00 0.00 51 1018.2
20260504020925 21 360 4.8 8.0 0.00 0.00 0.00 51 1018.2
20260504020826 21 360 4.8 8.0 0.00 0.00 0.00 51 1018.2
20260504020726 21 360 4.8 8.0 0.00 0.00 0.00 51 1018.2
20260504020631 21 360 4.8 8.0 0.00 0.00 0.00 51 1018.1
20260504020531 21 360 4.8 8.0 0.00 0.00 0.00 51 1018.2
20260504020432 21 360 4.8 8.0 0.00 0.00 0.00 51 1018.1
20260504020332 21 360 4.8 8.0 0.00 0.00 0.00 50 1018.1
20260504020233 21 360 4.8 8.0 0.00 0.00 0.00 50 1018.1
20260504020134 21 360 4.8 8.0 0.00 0.00 0.00 50 1018.1
20260504020018 21 360 4.8 9.7 0.00 0.00 0.00 50 1018.1
20260504015919 21 360 4.8 9.7 0.00 0.00 0.00 50 1018.1
20260504015821 21 360 4.8 9.7 0.00 0.00 0.00 50 1018.1
20260504015720 21 360 4.8 9.7 0.00 0.00 0.00 50 1018.0
20260504015621 21 360 4.8 9.7 0.00 0.00 0.00 50 1018.1
20260504015522 21 360 4.8 9.7 0.00 0.00 0.00 50 1018.1
20260504015426 21 360 4.8 9.7 0.00 0.00 0.00 50 1018.1
20260504015327 21 360 4.8 9.7 0.00 0.00 0.00 50 1018.1
20260504015227 21 360 4.8 9.7 0.00 0.00 0.00 50 1018.1
20260504015127 21 360 4.8 9.7 0.00 0.00 0.00 50 1018.1
20260504015029 21 360 4.8 9.7 0.00 0.00 0.00 50 1018.1
20260504014951 21 360 4.8 9.7 0.00 0.00 0.00 50 1018.0
20260504014831 21 360 4.8 9.7 0.00 0.00 0.00 50 1018.0
20260504014716 21 360 4.8 9.7 0.00 0.00 0.00 50 1018.0
20260504014616 21 360 4.8 9.7 0.00 0.00 0.00 50 1018.0
20260504014517 21 360 4.8 8.0 0.00 0.00 0.00 50 1017.9
20260504014417 21 360 4.8 8.0 0.00 0.00 0.00 50 1017.9
20260504014318 21 360 4.8 8.0 0.00 0.00 0.00 50 1017.9
20260504014219 21 360 4.8 8.0 0.00 0.00 0.00 50 1017.8
20260504014139 21 360 4.8 8.0 0.00 0.00 0.00 50 1017.8
20260504014024 21 360 4.8 8.0 0.00 0.00 0.00 49 1017.6
20260504013925 21 360 4.8 8.0 0.00 0.00 0.00 49 1017.8
20260504013826 21 360 4.8 8.0 0.00 0.00 0.00 49 1017.8
20260504013727 21 360 6.4 9.7 0.00 0.00 0.00 49 1017.6
20260504013628 21 360 6.4 9.7 0.00 0.00 0.00 49 1017.7
20260504013528 21 360 6.4 9.7 0.00 0.00 0.00 49 1017.6
20260504013427 21 360 6.4 9.7 0.00 0.00 0.00 49 1017.7
20260504013332 21 360 6.4 9.7 0.00 0.00 0.00 49 1017.6
20260504013231 21 360 6.4 9.7 0.00 0.00 0.00 49 1017.6
20260504013132 21 360 6.4 12.9 0.00 0.00 0.00 49 1017.5
20260504013032 21 360 6.4 12.9 0.00 0.00 0.00 49 1017.6
20260504012932 21 360 6.4 12.9 0.00 0.00 0.00 49 1017.6
20260504012833 21 360 6.4 12.9 0.00 0.00 0.00 49 1017.6
20260504012733 22 360 6.4 12.9 0.00 0.00 0.00 49 1017.6
20260504012616 22 360 6.4 12.9 0.00 0.00 0.00 49 1017.6
20260504012517 22 360 6.4 12.9 0.00 0.00 0.00 48 1017.6
20260504012438 22 360 6.4 12.9 0.00 0.00 0.00 48 1017.5
20260504012317 22 360 6.4 12.9 0.00 0.00 0.00 48 1017.6
20260504012217 22 360 6.4 12.9 0.00 0.00 0.00 48 1017.6
20260504012118 22 360 6.4 12.9 0.00 0.00 0.00 48 1017.6
20260504012018 22 360 8.0 12.9 0.00 0.00 0.00 48 1017.6
20260504011923 22 360 8.0 12.9 0.00 0.00 0.00 48 1017.5
20260504011822 22 360 8.0 12.9 0.00 0.00 0.00 48 1017.5
20260504011743 22 360 8.0 12.9 0.00 0.00 0.00 48 1017.6
20260504011623 22 360 6.4 12.9 0.00 0.00 0.00 48 1017.6
20260504011524 22 360 6.4 12.9 0.00 0.00 0.00 48 1017.6
20260504011424 22 360 8.0 12.9 0.00 0.00 0.00 48 1017.6
20260504011325 22 360 6.4 12.9 0.00 0.00 0.00 48 1017.5
20260504011229 22 360 6.4 12.9 0.00 0.00 0.00 47 1017.5
20260504011129 22 360 6.4 12.9 0.00 0.00 0.00 47 1017.6
20260504011030 22 360 6.4 12.9 0.00 0.00 0.00 47 1017.6
20260504010930 22 360 6.4 12.9 0.00 0.00 0.00 47 1017.5
20260504010831 22 360 6.4 12.9 0.00 0.00 0.00 47 1017.6
20260504010752 22 360 6.4 12.9 0.00 0.00 0.00 47 1017.6
20260504010615 22 360 8.0 12.9 0.00 0.00 0.00 47 1017.7
20260504010516 22 360 8.0 14.5 0.00 0.00 0.00 47 1017.7
20260504010437 22 360 8.0 14.5 0.00 0.00 0.00 47 1017.6
20260504010336 22 360 6.4 14.5 0.00 0.00 0.00 47 1017.6
20260504010216 22 360 6.4 14.5 0.00 0.00 0.00 47 1017.6
20260504010116 22 360 6.4 14.5 0.00 0.00 0.00 47 1017.6
20260504010016 22 360 6.4 14.5 0.00 0.00 0.00 47 1017.6
20260504005922 22 360 6.4 14.5 0.00 0.00 0.00 47 1017.6
20260504005823 22 360 8.0 14.5 0.00 0.00 0.00 47 1017.6
20260504005722 22 360 8.0 14.5 0.00 0.00 0.00 46 1017.6
20260504005643 22 360 8.0 14.5 0.00 0.00 0.00 46 1017.6
20260504005522 22 360 9.7 14.5 0.00 0.00 0.00 46 1017.7
20260504005423 22 360 9.7 14.5 0.00 0.00 0.00 46 1017.7
20260504005323 22 360 9.7 14.5 0.00 0.00 0.00 46 1017.8
20260504005244 23 360 8.0 14.5 0.00 0.00 0.00 46 1017.8
20260504005127 23 360 8.0 14.5 0.00 0.00 0.00 46 1017.8
20260504005028 23 360 8.0 14.5 0.00 0.00 0.00 46 1017.8
20260504004929 23 360 8.0 19.3 0.00 0.00 0.00 46 1017.7
20260504004829 23 360 8.0 19.3 0.00 0.00 0.00 45 1017.6
20260504004729 23 360 9.7 19.3 0.00 0.00 0.00 45 1017.6
20260504004630 23 360 11.3 19.3 0.00 0.00 0.00 45 1017.6
20260504004534 23 360 11.3 19.3 0.00 0.00 0.00 45 1017.6
20260504004435 23 360 11.3 19.3 0.00 0.00 0.00 45 1017.7
20260504004355 23 360 11.3 19.3 0.00 0.00 0.00 45 1017.7
20260504004235 23 360 11.3 19.3 0.00 0.00 0.00 45 1017.5
20260504004116 23 360 11.3 22.5 0.00 0.00 0.00 45 1017.6
20260504004037 23 360 9.7 22.5 0.00 0.00 0.00 45 1017.6
20260504003936 23 360 9.7 22.5 0.00 0.00 0.00 45 1017.6
20260504003821 23 360 11.3 22.5 0.00 0.00 0.00 45 1017.6
20260504003722 23 360 11.3 22.5 0.00 0.00 0.00 45 1017.6
20260504003642 23 360 11.3 22.5 0.00 0.00 0.00 44 1017.6
20260504003604 23 360 11.3 22.5 0.00 0.00 0.00 44 1017.6
20260504003416 23 360 11.3 22.5 0.00 0.00 0.00 44 1017.7
20260504003316 23 360 11.3 22.5 0.00 0.00 0.00 44 1017.7
20260504003216 23 360 11.3 22.5 0.00 0.00 0.00 44 1017.6
20260504003121 23 360 11.3 25.7 0.00 0.00 0.00 44 1017.6
20260504003021 23 360 11.3 25.7 0.00 0.00 0.00 44 1017.6
20260504002942 23 360 11.3 25.7 0.00 0.00 0.00 44 1017.6
20260504002843 23 360 11.3 25.7 0.00 0.00 0.00 44 1017.6
20260504002716 23 360 9.7 25.7 0.00 0.00 0.00 44 1017.6
20260504002617 23 360 11.3 25.7 0.00 0.00 0.00 44 1017.7
20260504002518 23 360 11.3 25.7 0.00 0.00 0.00 44 1017.6
20260504002421 23 360 11.3 25.7 0.00 0.00 0.00 44 1017.6
20260504002322 23 360 12.9 25.7 0.00 0.00 0.00 44 1017.7
20260504002222 23 360 14.5 25.7 0.00 0.00 0.00 44 1017.8
20260504002123 23 360 14.5 25.7 0.00 0.00 0.00 44 1017.9
20260504002042 23 360 16.1 25.7 0.00 0.00 0.00 44 1017.9
20260504001916 23 360 16.1 25.7 0.00 0.00 0.00 42 1017.8
20260504001837 23 360 14.5 25.7 0.00 0.00 0.00 42 1017.9
20260504001738 23 360 14.5 25.7 0.00 0.00 0.00 42 1017.9
20260504001622 23 360 16.1 25.7 0.00 0.00 0.00 42 1018.0
20260504001522 23 360 16.1 25.7 0.00 0.00 0.00 42 1017.9
20260504001423 23 360 12.9 25.7 0.00 0.00 0.00 42 1018.0
20260504001324 23 360 11.3 25.7 0.00 0.00 0.00 42 1018.0
20260504001225 23 360 11.3 25.7 0.00 0.00 0.00 42 1017.9
20260504001124 23 360 12.9 25.7 0.00 0.00 0.00 42 1018.0
20260504001029 23 360 11.3 25.7 0.00 0.00 0.00 42 1018.0
20260504000930 23 360 12.9 25.7 0.00 0.00 0.00 42 1018.0
20260504000850 23 360 12.9 25.7 0.00 0.00 0.00 42 1018.1
20260504000729 23 360 14.5 25.7 0.00 0.00 0.00 42 1018.0
20260504000629 23 360 14.5 25.7 0.00 0.00 0.00 42 1018.0
20260504000550 23 360 16.1 24.1 0.00 0.00 0.00 42 1018.1
20260504000431 23 360 16.1 25.7 0.00 0.00 0.00 42 1018.1
20260504000349 23 360 16.1 25.7 0.00 0.00 0.00 41 1018.0
20260504000234 23 360 14.5 25.7 0.00 0.00 0.00 41 1018.0
20260504000153 23 360 14.5 25.7 0.00 0.00 0.00 41 1018.1
20260504000052 23 360 12.9 25.7 0.00 0.00 0.00 41 1018.1
20260503235953 23 360 11.3 24.1 0.00 0.00 0.00 42 1018.1
20260503235832 23 360 11.3 24.1 0.00 0.00 0.00 41 1018.2
20260503235734 23 360 11.3 20.9 0.00 0.00 0.00 42 1018.1
20260503235634 23 360 9.7 17.7 0.00 0.00 0.00 43 1018.2
20260503235534 24 360 8.0 17.7 0.00 0.00 0.00 43 1018.1
20260503235419 24 360 8.0 17.7 0.00 0.00 0.00 43 1018.2
20260503235319 24 360 8.0 17.7 0.00 0.00 0.00 41 1018.2
20260503235220 24 360 8.0 17.7 0.00 0.00 0.00 41 1018.2
20260503235140 24 360 6.4 17.7 0.00 0.00 0.00 41 1018.2
20260503235040 24 360 6.4 14.5 0.00 0.00 0.00 41 1018.2
20260503234919 24 360 6.4 12.9 0.00 0.00 0.00 41 1018.3
20260503234820 24 360 6.4 22.5 0.00 0.00 0.00 41 1018.3
20260503234724 24 360 6.4 27.4 0.00 0.00 0.00 41 1018.3
20260503234624 24 360 6.4 27.4 0.00 0.00 0.00 41 1018.4
20260503234525 24 360 8.0 27.4 0.00 0.00 0.00 41 1018.3
20260503234425 24 360 9.7 27.4 0.00 0.00 0.00 41 1018.4
20260503234325 24 360 11.3 27.4 0.00 0.00 0.00 41 1018.3
20260503234225 24 360 11.3 27.4 0.00 0.00 0.00 41 1018.3
20260503234125 24 360 12.9 27.4 0.00 0.00 0.00 40 1018.3
20260503234030 24 360 12.9 27.4 0.00 0.00 0.00 40 1018.3
20260503233930 24 360 12.9 27.4 0.00 0.00 0.00 41 1018.3
20260503233831 24 360 11.3 27.4 0.00 0.00 0.00 41 1018.3
20260503233751 24 360 11.3 27.4 0.00 0.00 0.00 41 1018.3
20260503233631 24 360 12.9 27.4 0.00 0.00 0.00 41 1018.3
20260503233531 24 360 14.5 27.4 0.00 0.00 0.00 41 1018.2
20260503233432 24 360 14.5 27.4 0.00 0.00 0.00 41 1018.2
20260503233316 24 360 14.5 27.4 0.00 0.00 0.00 41 1018.2
20260503233216 24 360 16.1 27.4 0.00 0.00 0.00 40 1018.3
20260503233137 24 360 16.1 27.4 0.00 0.00 0.00 40 1018.2
20260503233016 24 360 14.5 27.4 0.00 0.00 0.00 40 1018.3
20260503232917 24 360 14.5 27.4 0.00 0.00 0.00 40 1018.3
20260503232819 24 360 12.9 27.4 0.00 0.00 0.00 40 1018.3
20260503232739 24 360 12.9 27.4 0.00 0.00 0.00 40 1018.2
20260503232622 24 360 11.3 27.4 0.00 0.00 0.00 40 1018.2
20260503232523 24 360 12.9 27.4 0.00 0.00 0.00 40 1018.2
20260503232423 24 360 12.9 27.4 0.00 0.00 0.00 41 1018.3
20260503232323 24 360 12.9 27.4 0.00 0.00 0.00 41 1018.2
20260503232223 24 360 14.5 27.4 0.00 0.00 0.00 41 1018.2
20260503232124 24 360 14.5 27.4 0.00 0.00 0.00 40 1018.4
20260503232025 24 360 14.5 27.4 0.00 0.00 0.00 40 1018.4
20260503231949 24 360 16.1 27.4 0.00 0.00 0.00 40 1018.4
20260503231849 24 360 16.1 27.4 0.00 0.00 0.00 40 1018.4
20260503231727 24 360 14.5 27.4 0.00 0.00 0.00 40 1018.4
20260503231648 24 360 12.9 25.7 0.00 0.00 0.00 40 1018.4
20260503231527 24 360 12.9 29.0 0.00 0.00 0.00 40 1018.4
20260503231426 24 360 12.9 29.0 0.00 0.00 0.00 40 1018.3
20260503231327 24 360 12.9 29.0 0.00 0.00 0.00 40 1018.2
20260503231247 24 360 12.9 29.0 0.00 0.00 0.00 41 1018.3
20260503231125 24 360 14.5 29.0 0.00 0.00 0.00 41 1018.3
20260503231023 24 360 16.1 29.0 0.00 0.00 0.00 41 1018.3
20260503230927 24 360 17.7 29.0 0.00 0.00 0.00 40 1018.3
20260503230827 24 360 17.7 29.0 0.00 0.00 0.00 40 1018.3
20260503230727 24 360 19.3 29.0 0.00 0.00 0.00 40 1018.2
20260503230627 24 360 19.3 29.0 0.00 0.00 0.00 40 1018.3
20260503230528 24 360 19.3 29.0 0.00 0.00 0.00 39 1018.2
20260503230448 24 360 19.3 33.8 0.00 0.00 0.00 39 1018.2
20260503230348 24 360 17.7 33.8 0.00 0.00 0.00 40 1018.2
20260503230248 24 360 16.1 33.8 0.00 0.00 0.00 40 1018.2
20260503230132 24 360 14.5 33.8 0.00 0.00 0.00 40 1018.1
20260503230031 24 360 14.5 33.8 0.00 0.00 0.00 39 1018.1
20260503225932 24 360 14.5 33.8 0.00 0.00 0.00 40 1018.1
20260503225832 24 360 14.5 33.8 0.00 0.00 0.00 40 1018.1
20260503225733 24 360 14.5 33.8 0.00 0.00 0.00 39 1018.2
20260503225633 24 360 14.5 33.8 0.00 0.00 0.00 39 1018.1
20260503225518 24 360 14.5 33.8 0.00 0.00 0.00 39 1018.2
20260503225418 24 360 16.1 33.8 0.00 0.00 0.00 39 1018.2
20260503225318 24 360 16.1 30.6 0.00 0.00 0.00 39 1018.2
20260503225219 24 360 16.1 30.6 0.00 0.00 0.00 39 1018.2
20260503225119 24 360 16.1 30.6 0.00 0.00 0.00 39 1018.2
20260503225040 24 360 14.5 30.6 0.00 0.00 0.00 38 1018.2
20260503224920 24 360 16.1 30.6 0.00 0.00 0.00 38 1018.2
20260503224843 24 360 17.7 30.6 0.00 0.00 0.00 39 1018.2
20260503224723 24 360 16.1 29.0 0.00 0.00 0.00 39 1018.2
20260503224623 25 360 16.1 29.0 0.00 0.00 0.00 39 1018.3
20260503224544 24 360 14.5 29.0 0.00 0.00 0.00 39 1018.3
20260503224423 24 360 14.5 29.0 0.00 0.00 0.00 39 1018.4
20260503224323 24 360 14.5 29.0 0.00 0.00 0.00 39 1018.4
20260503224224 25 360 14.5 29.0 0.00 0.00 0.00 39 1018.5
20260503224130 25 360 12.9 29.0 0.00 0.00 0.00 39 1018.5
20260503224029 25 360 12.9 27.4 0.00 0.00 0.00 39 1018.4
20260503223930 25 360 12.9 27.4 0.00 0.00 0.00 39 1018.4
20260503223830 25 360 14.5 30.6 0.00 0.00 0.00 39 1018.4
20260503223731 25 360 16.1 30.6 0.00 0.00 0.00 39 1018.4
20260503223631 25 360 16.1 30.6 0.00 0.00 0.00 39 1018.5
20260503223532 25 360 17.7 30.6 0.00 0.00 0.00 39 1018.5
20260503223416 25 360 17.7 30.6 0.00 0.00 0.00 39 1018.5
20260503223336 25 360 17.7 30.6 0.00 0.00 0.00 39 1018.5
20260503223216 25 360 526.3 30.6 0.00 0.00 0.00 39 1018.6
20260503223116 25 360 526.3 30.6 0.00 0.00 0.00 38 1018.6
20260503223017 25 360 526.3 30.6 0.00 0.00 0.00 38 1018.7
20260503222918 25 360 526.3 24.1 0.00 0.00 0.00 38 1018.6
20260503222823 25 360 526.3 24.1 0.00 0.00 0.00 38 1018.7
20260503222723 25 360 526.3 24.1 0.00 0.00 0.00 38 1018.7
20260503222622 25 360 526.3 24.1 0.00 0.00 0.00 1018.6
20260503222523 25 360 526.3 24.1 0.00 0.00 0.00 1018.6
20260503222427 25 360 526.3 24.1 0.00 0.00 0.00 1018.8
20260503222324 -17 0.0 0.0 0.00 0.00 0.00 1018.7
20260503222226 -17 0.0 0.0 0.00 0.00 0.00 1018.8
20260503222114 -17 0.0 0.0 0.00 0.00 0.00 1018.7
20260503222017 -17 0.0 0.0 0.00 0.00 0.00 1018.6
20260503221940 -17 0.0 0.0 0.00 0.00 0.00 1018.7
20260503221822 -17 0.0 0.0 0.00 0.00 0.00 1018.7
20260503221747 -17 0.0 0.0 0.00 0.00 0.00 1018.8
20260503221629 -17 0.0 0.0 0.00 0.00 0.00 1018.7
20260503221515 -17 0.0 0.0 0.00 0.00 0.00 1018.8
20260503221419 -17 0.0 0.0 0.00 0.00 0.00 1018.7
20260503221322 -17 0.0 0.0 0.00 0.00 0.00 1018.7
20260503221225 -17 0.0 0.0 0.00 0.00 0.00 1018.7
20260503221128 -17 0.0 0.0 0.00 0.00 0.00 1018.8
20260503221031 -17 0.0 0.0 0.00 0.00 0.00 1018.8
20260503220935 -17 0.0 0.0 0.00 0.00 0.00 1018.8
20260503220903 -17 0.0 0.0 0.00 0.00 0.00 1018.9
20260503220828 -17 0.0 0.0 0.00 0.00 0.00 1018.8
20260503220731 -17 0.0 0.0 0.00 0.00 0.00 1018.8
20260503220558 -17 0.0 0.0 0.00 0.00 0.00 1018.9
20260503220413 -17 0.0 0.0 0.00 0.00 0.00 1019.0
20260503220316 -17 0.0 0.0 0.00 0.00 0.00 1019.0
20260503220220 -17 0.0 0.0 0.00 0.00 0.00 1019.0
20260503220124 -17 0.0 0.0 0.00 0.00 0.00 1019.0
20260503220029 -17 0.0 0.0 0.00 0.00 0.00 1019.0
20260503215913 -17 0.0 0.0 0.00 0.00 0.00 1019.1
20260503215838 -17 0.0 0.0 0.00 0.00 0.00 1019.1
20260503215720 -17 0.0 0.0 0.00 0.00 0.00 1019.1
20260503215622 -17 0.0 0.0 0.00 0.00 0.00 1019.1
20260503215526 -17 0.0 0.0 0.00 0.00 0.00 1019.1
20260503215413 -17 0.0 0.0 0.00 0.00 0.00 1019.1
20260503215317 -17 0.0 0.0 0.00 0.00 0.00 1019.2
20260503215221 -17 0.0 0.0 0.00 0.00 0.00 1019.1
20260503215125 -17 0.0 0.0 0.00 0.00 0.00 1019.1
20260503215028 -17 0.0 0.0 0.00 0.00 0.00 1019.2
20260503214932 -17 0.0 0.0 0.00 0.00 0.00 1019.1
20260503214814 -17 0.0 0.0 0.00 0.00 0.00 1019.2
20260503214722 -17 0.0 0.0 0.00 0.00 0.00 1019.2
20260503214626 -17 0.0 0.0 0.00 0.00 0.00 1019.1
20260503214529 -17 0.0 0.0 0.00 0.00 0.00 1019.1
20260503214432 -17 0.0 0.0 0.00 0.00 0.00 1019.1
20260503214316 -17 0.0 0.0 0.00 0.00 0.00 1018.9
20260503214220 -17 0.0 0.0 0.00 0.00 0.00 1019.1
20260503214127 -17 0.0 0.0 0.00 0.00 0.00 1019.1
20260503214051 -17 0.0 0.0 0.00 0.00 0.00 1019.1
20260503213933 -17 0.0 0.0 0.00 0.00 0.00 1019.1
20260503213816 -17 0.0 0.0 0.00 0.00 0.00 1019.3
20260503213719 -17 0.0 0.0 0.00 0.00 0.00 1019.3
20260503213643 -17 0.0 0.0 0.00 0.00 0.00 1019.3
20260503213526 -17 0.0 0.0 0.00 0.00 0.00 1019.3
20260503213413 -17 0.0 0.0 0.00 0.00 0.00 1019.3
20260503213317 -17 0.0 0.0 0.00 0.00 0.00 1019.3
20260503213221 -17 0.0 0.0 0.00 0.00 0.00 1019.4
20260503213144 -17 0.0 0.0 0.00 0.00 0.00 1019.4
20260503213014 -17 0.0 0.0 0.00 0.00 0.00 1019.3
20260503212916 -17 0.0 0.0 0.00 0.00 0.00 1019.4
20260503212839 -17 0.0 0.0 0.00 0.00 0.00 1019.4
20260503212728 -17 0.0 0.0 0.00 0.00 0.00 1019.4
20260503212630 -17 0.0 0.0 0.00 0.00 0.00 1019.4
20260503212535 -17 0.0 0.0 0.00 0.00 0.00 1019.5
20260503212459 -17 0.0 0.0 0.00 0.00 0.00 1019.4
20260503212340 -17 0.0 0.0 0.00 0.00 0.00 1019.4
20260503212215 -17 0.0 0.0 0.00 0.00 0.00 1019.5
20260503212119 -17 0.0 0.0 0.00 0.00 0.00 1019.6
20260503212027 -17 0.0 0.0 0.00 0.00 0.00 1019.6
20260503211929 -17 0.0 0.0 0.00 0.00 0.00 1019.5
20260503211853 -17 0.0 0.0 0.00 0.00 0.00 1019.5
20260503211756 -17 0.0 0.0 0.00 0.00 0.00 1019.6
20260503211659 -17 0.0 0.0 0.00 0.00 0.00 1019.5
20260503211513 -17 0.0 0.0 0.00 0.00 0.00 1019.6
20260503211417 -17 0.0 0.0 0.00 0.00 0.00 1019.7
20260503211320 -17 0.0 0.0 0.00 0.00 0.00 1019.7
20260503211228 -17 0.0 0.0 0.00 0.00 0.00 1019.7
20260503211130 -17 0.0 0.0 0.00 0.00 0.00 1019.7
20260503211014 -17 0.0 0.0 0.00 0.00 0.00 1019.7
20260503210916 -17 0.0 0.0 0.00 0.00 0.00 1019.7
20260503210820 -17 0.0 0.0 0.00 0.00 0.00 1019.8
20260503210724 -17 0.0 0.0 0.00 0.00 0.00 1019.8
20260503210631 -17 0.0 0.0 0.00 0.00 0.00 1019.8
20260503210515 -17 0.0 0.0 0.00 0.00 0.00 1019.9
20260503210419 -17 0.0 0.0 0.00 0.00 0.00 1019.9
20260503210321 -17 0.0 0.0 0.00 0.00 0.00 1019.9
20260503210224 -17 0.0 0.0 0.00 0.00 0.00 1019.9
20260503210128 -17 0.0 0.0 0.00 0.00 0.00 1019.9
20260503210036 -17 0.0 0.0 0.00 0.00 0.00 1019.9
20260503210000 -17 0.0 0.0 0.00 0.00 0.00 1019.9
20260503205836 -17 0.0 0.0 0.00 0.00 0.00 1020.0
20260503205740 -17 0.0 0.0 0.00 0.00 0.00 1020.0
20260503205615 -17 0.0 0.0 0.00 0.00 0.00 1020.1
20260503205539 -17 0.0 0.0 0.00 0.00 0.00 1020.2
20260503205420 -17 0.0 0.0 0.00 0.00 0.00 1020.2
20260503205328 -17 0.0 0.0 0.00 0.00 0.00 1020.2
20260503205231 -17 0.0 0.0 0.00 0.00 0.00 1020.3
20260503205155 -17 0.0 0.0 0.00 0.00 0.00 1020.2
20260503205058 -17 0.0 0.0 0.00 0.00 0.00 1020.2
20260503204913 -17 0.0 0.0 0.00 0.00 0.00 1020.2
20260503204816 -17 0.0 0.0 0.00 0.00 0.00 1020.3
20260503204721 -17 0.0 0.0 0.00 0.00 0.00 1020.2
20260503204628 -17 0.0 0.0 0.00 0.00 0.00 1020.2
20260503204531 -17 0.0 0.0 0.00 0.00 0.00 1020.3
20260503204454 -17 0.0 0.0 0.00 0.00 0.00 1020.2
20260503204357 -17 0.0 0.0 0.00 0.00 0.00 1020.2
20260503204300 -17 0.0 0.0 0.00 0.00 0.00 1020.3
20260503204029 -17 0.0 0.0 0.00 0.00 0.00 1020.2
20260503203931 -17 0.0 0.0 0.00 0.00 0.00 1020.3
20260503203819 -17 0.0 0.0 0.00 0.00 0.00 1020.3
20260503203724 -17 0.0 0.0 0.00 0.00 0.00 1020.3
20260503203626 -17 0.0 0.0 0.00 0.00 0.00 1020.4
20260503203530 -17 0.0 0.0 0.00 0.00 0.00 1020.2
20260503203432 -17 0.0 0.0 0.00 0.00 0.00 1020.4
20260503203316 -17 0.0 0.0 0.00 0.00 0.00 1020.5
20260503203224 -17 0.0 0.0 0.00 0.00 0.00 1020.5
20260503203147 -17 0.0 0.0 0.00 0.00 0.00 1020.5
20260503203030 -17 0.0 0.0 0.00 0.00 0.00 1020.6
20260503202914 -17 0.0 0.0 0.00 0.00 0.00 1020.5
20260503202839 -17 0.0 0.0 0.00 0.00 0.00 1020.6
20260503202720 -17 0.0 0.0 0.00 0.00 0.00 1020.6
20260503202623 -17 0.0 0.0 0.00 0.00 0.00 1020.6
20260503202531 -17 0.0 0.0 0.00 0.00 0.00 1020.7
20260503202435 -17 0.0 0.0 0.00 0.00 0.00 1020.6
20260503202332 -17 0.0 0.0 0.00 0.00 0.00 1020.7
20260503202215 -17 0.0 0.0 0.00 0.00 0.00 1020.7
20260503202119 -17 0.0 0.0 0.00 0.00 0.00 1020.7
20260503202021 -17 0.0 0.0 0.00 0.00 0.00 1020.7
20260503201929 -17 0.0 0.0 0.00 0.00 0.00 1020.7
20260503201813 -17 0.0 0.0 0.00 0.00 0.00 1020.7
20260503201716 -17 0.0 0.0 0.00 0.00 0.00 1020.7
20260503201620 -17 0.0 0.0 0.00 0.00 0.00 1020.7
20260503201524 -17 0.0 0.0 0.00 0.00 0.00 1020.7
20260503201426 -17 0.0 0.0 0.00 0.00 0.00 1020.8
20260503201314 -17 0.0 0.0 0.00 0.00 0.00 1020.7
20260503201217 -17 0.0 0.0 0.00 0.00 0.00 1020.8
20260503201141 -17 0.0 0.0 0.00 0.00 0.00 1020.8
20260503201024 -17 0.0 0.0 0.00 0.00 0.00 1020.8
20260503200927 -17 0.0 0.0 0.00 0.00 0.00 1020.8
20260503200831 -17 0.0 0.0 0.00 0.00 0.00 1020.7
20260503200713 -17 0.0 0.0 0.00 0.00 0.00 1020.7
20260503200613 -17 0.0 0.0 0.00 0.00 0.00 1020.7
20260503200537 -17 0.0 0.0 0.00 0.00 0.00 1020.7
20260503200413 -17 0.0 0.0 0.00 0.00 0.00 1020.7
20260503200337 -17 0.0 0.0 0.00 0.00 0.00 1020.7
20260503200213 -17 0.0 0.0 0.00 0.00 0.00 1020.8
20260503200117 -17 0.0 0.0 0.00 0.00 0.00 1020.8
20260503200019 -17 0.0 0.0 0.00 0.00 0.00 1020.9
20260503195926 -17 0.0 0.0 0.00 0.00 0.00 1020.9
20260503195849 -17 0.0 0.0 0.00 0.00 0.00 1021.0
20260503195752 -17 0.0 0.0 0.00 0.00 0.00 1021.0
20260503195614 -17 0.0 0.0 0.00 0.00 0.00 1021.2
20260503195517 -17 0.0 0.0 0.00 0.00 0.00 1021.2
20260503195420 -17 0.0 0.0 0.00 0.00 0.00 1021.2
20260503195324 -17 0.0 0.0 0.00 0.00 0.00 1021.2
20260503195232 -17 0.0 0.0 0.00 0.00 0.00 1021.2
20260503195135 -17 0.0 0.0 0.00 0.00 0.00 1021.2
20260503195025 25 360 9.7 25.7 0.00 0.00 0.00 39 1021.2
20260503194454 25 360 9.7 25.7 0.00 0.00 0.00 39 1021.1
20260503194222 25 360 9.7 25.7 0.00 0.00 0.00 39 1021.2
20260503194127 25 360 9.7 25.7 0.00 0.00 0.00 39 1021.2
20260503194028 25 360 9.7 25.7 0.00 0.00 0.00 39 1021.3
20260503193928 25 360 9.7 25.7 0.00 0.00 0.00 39 1021.3
20260503193828 25 360 9.7 25.7 0.00 0.00 0.00 39 1021.2
20260503193729 25 360 9.7 25.7 0.00 0.00 0.00 37 1021.2
20260503193629 25 360 11.3 29.0 0.00 0.00 0.00 37 1021.2
20260503193550 25 360 11.3 29.0 0.00 0.00 0.00 37 1021.2
20260503193433 25 360 11.3 29.0 0.00 0.00 0.00 37 1021.2
20260503193333 25 360 12.9 29.0 0.00 0.00 0.00 37 1021.3
20260503193233 25 360 12.9 29.0 0.00 0.00 0.00 37 1021.2
20260503193134 25 360 14.5 29.0 0.00 0.00 0.00 39 1021.3
20260503193055 25 360 14.5 29.0 0.00 0.00 0.00 39 1021.4
20260503192954 25 360 14.5 29.0 0.00 0.00 0.00 39 1021.4
20260503192834 25 360 12.9 29.0 0.00 0.00 0.00 39 1021.3
20260503192756 25 360 12.9 33.8 0.00 0.00 0.00 39 1021.4
20260503192529 25 360 12.9 33.8 0.00 0.00 0.00 39 1021.4
20260503192430 25 360 12.9 33.8 0.00 0.00 0.00 39 1021.5
20260503192331 25 360 12.9 33.8 0.00 0.00 0.00 39 1021.5
20260503192231 25 360 11.3 33.8 0.00 0.00 0.00 39 1021.4
20260503192151 25 360 11.3 33.8 0.00 0.00 0.00 39 1021.4
20260503192031 25 360 11.3 33.8 0.00 0.00 0.00 39 1021.5
20260503191952 25 360 11.3 25.7 0.00 0.00 0.00 39 1021.5
20260503191831 25 360 9.7 25.7 0.00 0.00 0.00 39 1021.5
20260503191735 25 360 9.7 25.7 0.00 0.00 0.00 39 1021.4
20260503191636 25 360 9.7 24.1 0.00 0.00 0.00 40 1021.5
20260503191535 25 360 12.9 24.1 0.00 0.00 0.00 40 1021.5
20260503191416 25 360 14.5 27.4 0.00 0.00 0.00 38 1021.4
20260503191337 25 360 14.5 27.4 0.00 0.00 0.00 38 1021.5
20260503191217 25 360 14.5 27.4 0.00 0.00 0.00 36 1021.5
20260503191117 25 360 12.9 27.4 0.00 0.00 0.00 36 1021.5
20260503191040 25 360 14.5 27.4 0.00 0.00 0.00 36 1021.6
20260503190921 25 360 12.9 27.4 0.00 0.00 0.00 37 1021.6
20260503190822 25 360 12.9 29.0 0.00 0.00 0.00 38 1021.6
20260503190742 25 360 12.9 29.0 0.00 0.00 0.00 38 1021.6
20260503190621 25 360 12.9 29.0 0.00 0.00 0.00 38 1021.7
20260503190521 25 360 12.9 29.0 0.00 0.00 0.00 36 1021.6
20260503190421 25 360 12.9 29.0 0.00 0.00 0.00 36 1021.7
20260503190322 25 360 12.9 29.0 0.00 0.00 0.00 36 1021.7
20260503190226 25 360 11.3 29.0 0.00 0.00 0.00 36 1021.7
20260503190127 25 360 12.9 29.0 0.00 0.00 0.00 36 1021.7
20260503190026 25 360 12.9 29.0 0.00 0.00 0.00 36 1021.9
20260503185926 25 360 14.5 30.6 0.00 0.00 0.00 37 1021.8
20260503185827 25 360 14.5 30.6 0.00 0.00 0.00 37 1021.7
20260503185728 25 360 14.5 30.6 0.00 0.00 0.00 37 1021.7
20260503185628 25 360 12.9 30.6 0.00 0.00 0.00 37 1021.8
20260503185533 25 360 12.9 30.6 0.00 0.00 0.00 37 1022.0
20260503185432 25 360 12.9 30.6 0.00 0.00 0.00 37 1021.9
20260503185333 25 360 12.9 30.6 0.00 0.00 0.00 37 1021.9
20260503185234 25 360 12.9 30.6 0.00 0.00 0.00 37 1021.9
20260503185134 25 360 12.9 30.6 0.00 0.00 0.00 38 1021.9
20260503185034 25 360 11.3 30.6 0.00 0.00 0.00 38 1022.0
20260503184918 25 360 11.3 30.6 0.00 0.00 0.00 38 1022.0
20260503184819 25 360 9.7 30.6 0.00 0.00 0.00 35 1022.0
20260503184739 25 360 9.7 24.1 0.00 0.00 0.00 35 1022.0
20260503184619 25 360 9.7 24.1 0.00 0.00 0.00 35 1022.0
20260503184520 25 360 9.7 24.1 0.00 0.00 0.00 35 1022.1
20260503184421 25 360 8.0 24.1 0.00 0.00 0.00 35 1022.1
20260503184322 25 360 8.0 24.1 0.00 0.00 0.00 37 1022.1
20260503184241 25 360 8.0 24.1 0.00 0.00 0.00 37 1022.2
20260503184145 25 360 9.7 24.1 0.00 0.00 0.00 37 1022.1
20260503184024 25 360 9.7 24.1 0.00 0.00 0.00 36 1022.1
20260503183924 25 360 11.3 24.1 0.00 0.00 0.00 37 1022.2
20260503183827 25 360 11.3 24.1 0.00 0.00 0.00 37 1022.2
20260503183727 25 360 11.3 24.1 0.00 0.00 0.00 37 1022.2
20260503183648 25 360 12.9 24.1 0.00 0.00 0.00 37 1022.1
20260503183528 25 360 12.9 24.1 0.00 0.00 0.00 37 1022.2
20260503183432 25 360 14.5 24.1 0.00 0.00 0.00 37 1022.1
20260503183332 25 360 14.5 24.1 0.00 0.00 0.00 35 1022.2
20260503183231 25 360 14.5 24.1 0.00 0.00 0.00 35 1022.2
20260503183132 25 360 14.5 24.1 0.00 0.00 0.00 35 1022.2
20260503183032 25 360 16.1 24.1 0.00 0.00 0.00 37 1022.2
20260503182933 25 360 14.5 24.1 0.00 0.00 0.00 37 1022.3
20260503182834 25 360 14.5 24.1 0.00 0.00 0.00 37 1022.3
20260503182718 25 360 14.5 24.1 0.00 0.00 0.00 37 1022.3
20260503182638 25 360 12.9 24.1 0.00 0.00 0.00 37 1022.4
20260503182519 25 360 12.9 24.1 0.00 0.00 0.00 37 1022.5
20260503182419 25 360 11.3 29.0 0.00 0.00 0.00 37 1022.5
20260503182321 25 360 11.3 29.0 0.00 0.00 0.00 37 1022.5
20260503182240 25 360 11.3 29.0 0.00 0.00 0.00 37 1022.6
20260503182120 25 360 11.3 29.0 0.00 0.00 0.00 37 1022.5
20260503182024 25 360 11.3 29.0 0.00 0.00 0.00 37 1022.5
20260503181925 25 360 11.3 29.0 0.00 0.00 0.00 37 1022.5
20260503181825 24 360 11.3 29.0 0.00 0.00 0.00 36 1022.5
20260503181725 24 360 12.9 29.0 0.00 0.00 0.00 36 1022.5
20260503181625 24 360 14.5 35.4 0.00 0.00 0.00 37 1022.5
20260503181526 25 360 14.5 35.4 0.00 0.00 0.00 37 1022.5
20260503181447 25 360 14.5 35.4 0.00 0.00 0.00 37 1022.6
20260503181330 25 360 14.5 35.4 0.00 0.00 0.00 38 1022.5
20260503181231 25 360 14.5 35.4 0.00 0.00 0.00 38 1022.5
20260503181151 25 360 16.1 35.4 0.00 0.00 0.00 38 1022.5
20260503181031 25 360 14.5 35.4 0.00 0.00 0.00 37 1022.5
20260503180930 25 360 14.5 35.4 0.00 0.00 0.00 37 1022.5
20260503180830 25 360 14.5 32.2 0.00 0.00 0.00 37 1022.6
20260503180731 25 360 14.5 32.2 0.00 0.00 0.00 37 1022.6
20260503180651 25 360 14.5 32.2 0.00 0.00 0.00 38 1022.6
20260503180535 25 360 14.5 32.2 0.00 0.00 0.00 38 1022.6
20260503180435 25 360 16.1 32.2 0.00 0.00 0.00 38 1022.7
20260503180356 25 360 16.1 32.2 0.00 0.00 0.00 37 1022.6
20260503180255 25 360 16.1 32.2 0.00 0.00 0.00 37 1022.7
20260503180135 25 360 14.5 32.2 0.00 0.00 0.00 37 1022.8
20260503180055 25 360 12.9 33.8 0.00 0.00 0.00 38 1022.8
20260503175955 25 360 11.3 33.8 0.00 0.00 0.00 38 1022.8
20260503175834 25 360 11.3 33.8 0.00 0.00 0.00 38 1022.9
20260503175718 25 360 9.7 33.8 0.00 0.00 0.00 38 1022.9
20260503175619 25 360 6.4 33.8 0.00 0.00 0.00 37 1023.0
20260503175519 25 360 9.7 33.8 0.00 0.00 0.00 37 1023.0
20260503175420 25 360 11.3 33.8 0.00 0.00 0.00 37 1023.1
20260503175320 25 360 12.9 33.8 0.00 0.00 0.00 37 1023.1
20260503175221 25 360 14.5 33.8 0.00 0.00 0.00 39 1023.2
20260503175122 25 360 16.1 33.8 0.00 0.00 0.00 38 1023.1
20260503175046 24 360 17.7 33.8 0.00 0.00 0.00 37 1023.2
20260503174926 24 360 17.7 33.8 0.00 0.00 0.00 37 1023.2
20260503174826 25 360 17.7 33.8 0.00 0.00 0.00 37 1023.2
20260503174746 25 360 17.7 29.0 0.00 0.00 0.00 39 1023.1
20260503174624 25 360 17.7 29.0 0.00 0.00 0.00 39 1023.1
20260503174525 25 360 14.5 29.0 0.00 0.00 0.00 39 1023.1
20260503174426 25 360 14.5 29.0 0.00 0.00 0.00 38 1023.1
20260503174326 25 360 11.3 24.1 0.00 0.00 0.00 38 1023.0
20260503174231 25 360 9.7 24.1 0.00 0.00 0.00 38 1023.2
20260503174151 25 360 8.0 22.5 0.00 0.00 0.00 39 1023.2
20260503174031 25 360 9.7 22.5 0.00 0.00 0.00 39 1023.2
20260503173930 25 360 8.0 22.5 0.00 0.00 0.00 39 1023.3
20260503173831 25 360 8.0 33.8 0.00 0.00 0.00 38 1023.2
20260503173732 25 360 6.4 33.8 0.00 0.00 0.00 38 1023.3
20260503173652 25 360 9.7 33.8 0.00 0.00 0.00 38 1023.3
20260503173536 25 360 11.3 33.8 0.00 0.00 0.00 38 1023.3
20260503173434 25 360 11.3 33.8 0.00 0.00 0.00 38 1023.3
20260503173335 25 360 9.7 33.8 0.00 0.00 0.00 40 1023.4
20260503173235 24 360 9.7 33.8 0.00 0.00 0.00 39 1023.3
20260503173135 24 360 9.7 33.8 0.00 0.00 0.00 39 1023.3
20260503173016 24 360 526.3 33.8 0.00 0.00 0.00 39 1023.2
20260503172917 24 360 526.3 25.7 0.00 0.00 0.00 39 1023.2
20260503172822 24 360 526.3 25.7 0.00 0.00 0.00 39 1023.1
20260503172721 24 360 526.3 25.7 0.00 0.00 0.00 39 1023.2
20260503172622 24 360 526.3 25.7 0.00 0.00 0.00 37 1023.2
20260503172543 24 360 526.3 25.7 0.00 0.00 0.00 37 1023.2
20260503172503 24 360 526.3 25.7 0.00 0.00 0.00 37 1023.3
20260503172227 -17 0.0 0.0 0.00 0.00 0.00 1023.4
20260503172115 -17 0.0 0.0 0.00 0.00 0.00 1023.4
20260503172019 -17 0.0 0.0 0.00 0.00 0.00 1023.4
20260503171942 -17 0.0 0.0 0.00 0.00 0.00 1023.4
20260503171844 -17 0.0 0.0 0.00 0.00 0.00 1023.4
20260503171727 -17 0.0 0.0 0.00 0.00 0.00 1023.6
20260503171631 -17 0.0 0.0 0.00 0.00 0.00 1023.4
20260503171514 -17 0.0 0.0 0.00 0.00 0.00 1023.4
20260503171423 -17 0.0 0.0 0.00 0.00 0.00 1023.4
20260503171345 -17 0.0 0.0 0.00 0.00 0.00 1023.5
20260503171228 -17 0.0 0.0 0.00 0.00 0.00 1023.6
20260503171132 -17 0.0 0.0 0.00 0.00 0.00 1023.6
20260503171016 -17 0.0 0.0 0.00 0.00 0.00 1023.6
20260503170920 -17 0.0 0.0 0.00 0.00 0.00 1023.6
20260503170822 -17 0.0 0.0 0.00 0.00 0.00 1023.6
20260503170728 -17 0.0 0.0 0.00 0.00 0.00 1023.6
20260503170632 -17 0.0 0.0 0.00 0.00 0.00 1023.7
20260503170528 -17 0.0 0.0 0.00 0.00 0.00 1023.6
20260503170432 -17 0.0 0.0 0.00 0.00 0.00 1023.6
20260503170336 -17 0.0 0.0 0.00 0.00 0.00 1023.6
20260503170219 -17 0.0 0.0 0.00 0.00 0.00 1023.6
20260503170124 -17 0.0 0.0 0.00 0.00 0.00 1023.6
20260503160213 -17 0.0 0.0 0.00 0.00 0.00 1024.3
20260503160136 -17 0.0 0.0 0.00 0.00 0.00 1024.3
20260503150943 -17 0.0 0.0 0.00 0.00 0.00 1024.2
20260503150826 -17 0.0 0.0 0.00 0.00 0.00 1024.3
20260503150728 -17 0.0 0.0 0.00 0.00 0.00 1024.2
20260503150636 -17 0.0 0.0 0.00 0.00 0.00 1024.3
20260503150600 -17 0.0 0.0 0.00 0.00 0.00 1024.2
20260503150415 -17 0.0 0.0 0.00 0.00 0.00 1024.2
20260503150318 -17 0.0 0.0 0.00 0.00 0.00 1024.1
20260503150221 -17 0.0 0.0 0.00 0.00 0.00 1024.1
20260503150124 -17 0.0 0.0 0.00 0.00 0.00 1024.1
20260503140225 -17 0.0 0.0 0.00 0.00 0.00 1023.9
20260503140149 -17 0.0 0.0 0.00 0.00 0.00 1023.9
20260503131330 15 360 1.6 4.8 0.00 0.00 0.00 76 1023.7
20260503131231 15 360 3.2 6.4 0.00 0.00 0.00 76 1023.6
20260503131136 15 360 3.2 6.4 0.00 0.00 0.00 76 1023.7
20260503131037 15 360 3.2 6.4 0.00 0.00 0.00 76 1023.7
20260503130935 14 360 3.2 6.4 0.00 0.00 0.00 76 1023.7
20260503130816 14 360 3.2 6.4 0.00 0.00 0.00 77 1023.6
20260503130717 14 360 3.2 6.4 0.00 0.00 0.00 77 1023.6
20260503130616 14 360 3.2 6.4 0.00 0.00 0.00 77 1023.6
20260503130521 13 360 3.2 6.4 0.00 0.00 0.00 77 1023.6
20260503130441 13 360 3.2 6.4 0.00 0.00 0.00 78 1023.6
20260503130321 13 360 3.2 6.4 0.00 0.00 0.00 78 1023.6
20260503130241 13 360 3.2 6.4 0.00 0.00 0.00 78 1023.6
20260503130120 13 360 3.2 6.4 0.00 0.00 0.00 78 1023.6
20260503120127 10 360 3.2 4.8 0.00 0.00 0.00 85 1023.2
20260503110734 11 360 3.2 4.8 0.00 0.00 0.00 82 1022.7
20260503110634 11 360 3.2 4.8 0.00 0.00 0.00 83 1022.8
20260503110535 11 360 3.2 4.8 0.00 0.00 0.00 83 1022.7
20260503110434 11 360 1.6 4.8 0.00 0.00 0.00 83 1022.7
20260503110335 11 360 1.6 3.2 0.00 0.00 0.00 83 1022.6
20260503110216 11 360 1.6 3.2 0.00 0.00 0.00 83 1022.6
20260503110120 11 360 0.0 3.2 0.00 0.00 0.00 83 1022.6
20260503100219 11 360 3.2 6.4 0.00 0.00 0.00 84 1022.1
20260503100120 11 360 3.2 6.4 0.00 0.00 0.00 84 1022.1
20260503090419 11 360 1.6 3.2 0.00 0.00 0.00 83 1022.2
20260503090320 11 360 1.6 4.8 0.00 0.00 0.00 83 1022.2
20260503090221 11 360 1.6 4.8 0.00 0.00 0.00 83 1022.2
20260503090142 11 360 1.6 4.8 0.00 0.00 0.00 83 1022.2
20260503081629 12 360 3.2 4.8 0.00 0.00 0.00 78 1022.2
20260503081530 12 360 3.2 4.8 0.00 0.00 0.00 78 1022.3
20260503081430 12 360 3.2 4.8 0.00 0.00 0.00 78 1022.3
20260503081330 12 360 3.2 3.2 0.00 0.00 0.00 77 1022.3
20260503081230 12 360 3.2 3.2 0.00 0.00 0.00 77 1022.3
20260503081151 12 360 3.2 3.2 0.00 0.00 0.00 77 1022.3
20260503081030 12 360 3.2 3.2 0.00 0.00 0.00 77 1022.2
20260503080935 12 360 3.2 3.2 0.00 0.00 0.00 77 1022.2
20260503080835 12 360 1.6 3.2 0.00 0.00 0.00 77 1022.2
20260503080755 12 360 1.6 3.2 0.00 0.00 0.00 77 1022.1
20260503080634 12 360 1.6 3.2 0.00 0.00 0.00 77 1022.1
20260503080535 13 360 1.6 3.2 0.00 0.00 0.00 77 1022.1
20260503080455 13 360 1.6 3.2 0.00 0.00 0.00 77 1022.2
20260503080355 13 360 1.6 3.2 0.00 0.00 0.00 77 1022.2
20260503080254 13 360 3.2 3.2 0.00 0.00 0.00 77 1022.2
20260503080118 13 360 3.2 3.2 0.00 0.00 0.00 77 1022.2